When you browse on this site, cookies collect data to enhance your experience and personalize the content and advertising you see.
Visit our Privacy Policy to learn more. By continuing to use the site, you agree to this use of cookies and data.
  • In Spain
  • List of Countries
  • For 7 days
  • Water Temperature
  • Weather Map
  • Weather Widgets
  • user-avatar
    Login

    Hourly Weather Maksyma Hor'koho

    Today, 14 October, Monday

    Time Temperature Precipitation Wind Pressure Humidity
    00:00 +14°C° 0 mm 2 mps 768 mmHg 89%
    01:00 +14°C° 0 mm 2 mps 768 mmHg 89%
    02:00 +14°C° 0 mm 2 mps 768 mmHg 90%
    03:00 +14°C° 0 mm 1 mps 768 mmHg 90%
    04:00 +14°C° 0 mm 1 mps 768 mmHg 90%
    05:00 +14°C° 0 mm 1 mps 767 mmHg 90%
    06:00 +15°C° 0 mm 1 mps 768 mmHg 86%
    07:00 +16°C° 0 mm 1 mps 768 mmHg 83%
    08:00 +17°C° 0 mm 2 mps 768 mmHg 80%
    09:00 +19°C° 0 mm 1 mps 768 mmHg 69%
    10:00 +20°C° 0 mm 1 mps 768 mmHg 59%
    11:00 +22°C° 0 mm 1 mps 768 mmHg 48%
    12:00 +22°C° 0 mm 1 mps 767 mmHg 46%
    13:00 +23°C° 0 mm 2 mps 767 mmHg 43%
    14:00 +23°C° 0 mm 2 mps 767 mmHg 40%
    15:00 +21°C° 0 mm 2 mps 767 mmHg 45%
    16:00 +19°C° 0 mm 2 mps 766 mmHg 50%
    17:00 +18°C° 0 mm 2 mps 766 mmHg 55%
    18:00 +17°C° 0 mm 2 mps 766 mmHg 57%
    19:00 +17°C° 0 mm 2 mps 766 mmHg 60%
    20:00 +16°C° 0 mm 2 mps 766 mmHg 62%
    21:00 +15°C° 0 mm 2 mps 766 mmHg 63%
    22:00 +15°C° 0 mm 2 mps 766 mmHg 64%
    23:00 +15°C° 0 mm 2 mps 766 mmHg 65%

    Tomorrow, 15 October, Tuesday

    Time Temperature Precipitation Wind Pressure Humidity
    00:00 +14°C° 0 mm 2 mps 766 mmHg 65%
    01:00 +14°C° 0 mm 2 mps 766 mmHg 66%
    02:00 +14°C° 0 mm 2 mps 766 mmHg 66%
    03:00 +14°C° 0 mm 2 mps 765 mmHg 67%
    04:00 +13°C° 0 mm 2 mps 765 mmHg 67%
    05:00 +13°C° 0 mm 2 mps 765 mmHg 68%
    06:00 +14°C° 0 mm 2 mps 765 mmHg 65%
    07:00 +15°C° 0 mm 2 mps 765 mmHg 61%
    08:00 +16°C° 0 mm 3 mps 765 mmHg 58%
    09:00 +18°C° 0 mm 3 mps 765 mmHg 51%
    10:00 +19°C° 0 mm 3 mps 765 mmHg 44%
    11:00 +21°C° 0 mm 3 mps 765 mmHg 38%
    12:00 +22°C° 0 mm 3 mps 765 mmHg 36%
    13:00 +24°C° 0 mm 3 mps 765 mmHg 34%
    14:00 +24°C° 0 mm 3 mps 764 mmHg 32%
    15:00 +22°C° 0 mm 3 mps 764 mmHg 37%
    16:00 +20°C° 0 mm 3 mps 764 mmHg 42%
    17:00 +18°C° 0 mm 3 mps 764 mmHg 48%
    18:00 +18°C° 0 mm 3 mps 764 mmHg 50%
    19:00 +17°C° 0 mm 3 mps 764 mmHg 52%
    20:00 +16°C° 0 mm 3 mps 764 mmHg 54%
    21:00 +16°C° 0 mm 3 mps 764 mmHg 55%
    22:00 +14°C° 0 mm 3 mps 764 mmHg 56%
    23:00 +15°C° 0 mm 2 mps 764 mmHg 57%

    Day after tomorrow, 16 October, Wednesday

    Time Temperature Precipitation Wind Pressure Humidity
    00:00 +14°C° 0 mm 3 mps 764 mmHg 58%
    01:00 +14°C° 0 mm 3 mps 764 mmHg 58%
    02:00 +13°C° 0 mm 3 mps 764 mmHg 58%
    03:00 +13°C° 0 mm 3 mps 764 mmHg 58%
    04:00 +13°C° 0 mm 4 mps 764 mmHg 58%
    05:00 +13°C° 0 mm 4 mps 764 mmHg 57%
    06:00 +14°C° 0 mm 4 mps 764 mmHg 54%
    07:00 +14°C° 0 mm 4 mps 764 mmHg 51%
    08:00 +15°C° 0 mm 4 mps 764 mmHg 48%
    09:00 +19°C° 0 mm 4 mps 764 mmHg 44%
    10:00 +21°C° 0 mm 4 mps 764 mmHg 40%
    11:00 +23°C° 0 mm 4 mps 764 mmHg 36%
    12:00 +23°C° 0 mm 4 mps 764 mmHg 35%
    13:00 +25°C° 0 mm 5 mps 763 mmHg 34%
    14:00 +25°C° 0 mm 5 mps 763 mmHg 34%
    15:00 +22°C° 0 mm 5 mps 763 mmHg 40%
    16:00 +21°C° 0 mm 4 mps 763 mmHg 46%
    17:00 +19°C° 0 mm 4 mps 763 mmHg 52%
    18:00 +18°C° 0 mm 4 mps 763 mmHg 55%
    19:00 +17°C° 0 mm 4 mps 763 mmHg 57%
    20:00 +17°C° 0 mm 4 mps 763 mmHg 59%
    21:00 +15°C° 0 mm 4 mps 763 mmHg 59%
    22:00 +15°C° 0 mm 4 mps 763 mmHg 59%
    23:00 +14°C° 0 mm 3 mps 763 mmHg 59%

    17 October, Thursday

    Time Temperature Precipitation Wind Pressure Humidity
    00:00 +14°C° 0 mm 3 mps 763 mmHg 62%
    01:00 +14°C° 0 mm 3 mps 763 mmHg 64%
    02:00 +14°C° 0 mm 3 mps 763 mmHg 66%
    03:00 +13°C° 0 mm 4 mps 763 mmHg 69%
    04:00 +13°C° 0 mm 4 mps 763 mmHg 72%
    05:00 +13°C° 0 mm 4 mps 763 mmHg 75%
    06:00 +14°C° 0 mm 4 mps 763 mmHg 72%
    07:00 +15°C° 0 mm 5 mps 763 mmHg 70%
    08:00 +16°C° 0 mm 5 mps 763 mmHg 67%
    09:00 +19°C° 0 mm 5 mps 763 mmHg 59%
    10:00 +21°C° 0 mm 4 mps 763 mmHg 52%
    11:00 +23°C° 0 mm 4 mps 763 mmHg 44%
    12:00 +23°C° 0 mm 4 mps 763 mmHg 42%
    13:00 +25°C° 0 mm 4 mps 763 mmHg 40%
    14:00 +25°C° 0 mm 4 mps 762 mmHg 38%
    15:00 +22°C° 0 mm 4 mps 762 mmHg 47%
    16:00 +20°C° 0 mm 4 mps 762 mmHg 55%
    17:00 +18°C° 0 mm 4 mps 762 mmHg 63%
    18:00 +18°C° 0 mm 3 mps 762 mmHg 68%
    19:00 +17°C° 0 mm 3 mps 762 mmHg 73%
    20:00 +16°C° 0 mm 3 mps 763 mmHg 78%
    21:00 +16°C° 0 mm 3 mps 763 mmHg 78%
    22:00 +15°C° 0 mm 2 mps 763 mmHg 77%
    23:00 +15°C° 0 mm 2 mps 763 mmHg 77%

    18 October, Friday

    Time Temperature Precipitation Wind Pressure Humidity
    00:00 +15°C° 0 mm 2 mps 763 mmHg 76%
    01:00 +15°C° 0 mm 2 mps 762 mmHg 76%
    02:00 +14°C° 0 mm 3 mps 762 mmHg 75%
    03:00 +14°C° 0 mm 3 mps 762 mmHg 75%
    04:00 +13°C° 0 mm 3 mps 763 mmHg 75%
    05:00 +13°C° 0 mm 3 mps 763 mmHg 75%
    06:00 +14°C° 0 mm 3 mps 763 mmHg 69%
    07:00 +16°C° 0 mm 3 mps 763 mmHg 64%
    08:00 +17°C° 0 mm 3 mps 763 mmHg 59%
    09:00 +19°C° 0 mm 3 mps 763 mmHg 53%
    10:00 +21°C° 0 mm 3 mps 763 mmHg 46%
    11:00 +24°C° 0 mm 3 mps 763 mmHg 40%
    12:00 +24°C° 0 mm 3 mps 763 mmHg 38%
    13:00 +25°C° 0 mm 3 mps 763 mmHg 35%
    14:00 +26°C° 0 mm 3 mps 763 mmHg 33%
    15:00 +24°C° 0 mm 2 mps 763 mmHg 38%
    16:00 +21°C° 0 mm 2 mps 763 mmHg 42%
    17:00 +19°C° 0 mm 2 mps 763 mmHg 47%
    18:00 +19°C° 0 mm 2 mps 763 mmHg 49%
    19:00 +18°C° 0 mm 2 mps 763 mmHg 50%
    20:00 +17°C° 0 mm 3 mps 764 mmHg 52%
    21:00 +17°C° 0 mm 3 mps 764 mmHg 52%
    22:00 +16°C° 0 mm 3 mps 764 mmHg 53%
    23:00 +16°C° 0 mm 3 mps 764 mmHg 54%

    19 October, Saturday

    Time Temperature Precipitation Wind Pressure Humidity
    00:00 +14°C° 0 mm 3 mps 764 mmHg 55%
    01:00 +14°C° 0 mm 3 mps 764 mmHg 56%
    02:00 +14°C° 0 mm 3 mps 764 mmHg 57%
    03:00 +13°C° 0 mm 3 mps 764 mmHg 59%
    04:00 +13°C° 0 mm 4 mps 764 mmHg 60%
    05:00 +13°C° 0 mm 4 mps 764 mmHg 62%
    06:00 +13°C° 0 mm 4 mps 764 mmHg 60%
    07:00 +14°C° 0 mm 4 mps 764 mmHg 58%
    08:00 +15°C° 0 mm 4 mps 764 mmHg 56%
    09:00 +18°C° 0 mm 4 mps 765 mmHg 51%
    10:00 +20°C° 0 mm 4 mps 765 mmHg 46%
    11:00 +22°C° 0 mm 4 mps 765 mmHg 41%
    12:00 +22°C° 0 mm 4 mps 765 mmHg 40%
    13:00 +23°C° 0 mm 5 mps 765 mmHg 40%
    14:00 +23°C° 0 mm 5 mps 765 mmHg 39%
    15:00 +21°C° 0 mm 5 mps 764 mmHg 46%
    16:00 +19°C° 0 mm 4 mps 764 mmHg 54%
    17:00 +18°C° 0 mm 4 mps 764 mmHg 61%
    18:00 +17°C° 0 mm 4 mps 764 mmHg 65%
    19:00 +15°C° 0 mm 4 mps 765 mmHg 68%
    20:00 +15°C° 0 mm 4 mps 765 mmHg 71%
    21:00 +14°C° 0 mm 4 mps 765 mmHg 72%
    22:00 +14°C° 0 mm 4 mps 765 mmHg 74%
    23:00 +14°C° 0 mm 4 mps 765 mmHg 75%
    Show more